Time,TemperatureF,DewpointF,PressureIn,WindDirection,WindDirectionDegrees,WindSpeedMPH,WindSpeedGustMPH,Humidity,HourlyPrecipIn,Conditions,Clouds,dailyrainin,SoftwareType,DateUTC
2013-10-22 00:23:00,38.0,-99.9,29.81,North,-999,27.0,34.0,-999,-99.99,,,-99.99,,2013-10-22 05:23:00,
2013-10-22 01:22:00,38.0,-99.9,29.80,North,-999,25.0,31.0,-999,-99.99,,,-99.99,,2013-10-22 06:22:00,
2013-10-22 01:54:00,39.0,-99.9,29.79,North,-999,25.0,34.0,-999,-99.99,,,-99.99,,2013-10-22 06:54:00,
2013-10-22 02:12:00,39.0,-99.9,29.80,North,-999,25.0,31.0,-999,-99.99,,,-99.99,,2013-10-22 07:12:00,
2013-10-22 02:23:00,39.0,-99.9,29.80,North,-999,25.0,31.0,-999,-99.99,,,-99.99,,2013-10-22 07:23:00,
2013-10-22 02:52:00,39.0,-99.9,29.80,North,-999,27.0,34.0,-999,-99.99,,,-99.99,,2013-10-22 07:52:00,
2013-10-22 03:22:00,39.0,-99.9,29.81,North,-999,27.0,34.0,-999,-99.99,,,-99.99,,2013-10-22 08:22:00,
2013-10-22 03:42:00,40.0,-99.9,29.80,North,-999,25.0,34.0,-999,-99.99,,,-99.99,,2013-10-22 08:42:00,
2013-10-22 03:52:00,40.0,-99.9,29.80,North,-999,25.0,34.0,-999,-99.99,,,-99.99,,2013-10-22 08:52:00,
2013-10-22 04:11:00,40.0,-99.9,29.81,North,-999,27.0,31.0,-999,-99.99,,,-99.99,,2013-10-22 09:11:00,
2013-10-22 04:22:00,40.0,-99.9,29.81,North,-999,27.0,31.0,-999,-99.99,,,-99.99,,2013-10-22 09:22:00,
2013-10-22 04:43:00,39.0,-99.9,29.81,North,-999,27.0,34.0,-999,-99.99,,,-99.99,,2013-10-22 09:43:00,
2013-10-22 04:54:00,39.0,-99.9,29.81,North,-999,27.0,34.0,-999,-99.99,,,-99.99,,2013-10-22 09:54:00,
2013-10-22 05:13:00,39.0,-99.9,29.82,North,-999,22.0,29.0,-999,-99.99,,,-99.99,,2013-10-22 10:13:00,
2013-10-22 05:23:00,39.0,-99.9,29.82,North,-999,22.0,29.0,-999,-99.99,,,-99.99,,2013-10-22 10:23:00,
2013-10-22 05:54:00,39.0,-99.9,29.83,North,-999,22.0,27.0,-999,-99.99,,,-99.99,,2013-10-22 10:54:00,
2013-10-22 06:22:00,39.0,-99.9,29.83,North,-999,20.0,25.0,-999,-99.99,,,-99.99,,2013-10-22 11:22:00,
2013-10-22 06:53:00,39.0,-99.9,29.85,North,-999,22.0,27.0,-999,-99.99,,,-99.99,,2013-10-22 11:53:00,
2013-10-22 07:22:00,39.0,-99.9,29.85,North,-999,20.0,25.0,-999,-99.99,,,-99.99,,2013-10-22 12:22:00,
2013-10-22 07:52:00,39.0,-99.9,29.85,North,-999,22.0,29.0,-999,-99.99,,,-99.99,,2013-10-22 12:52:00,
2013-10-22 08:22:00,40.0,-99.9,29.86,North,-999,22.0,29.0,-999,-99.99,,,-99.99,,2013-10-22 13:22:00,
2013-10-22 08:53:00,39.0,-99.9,29.86,North,-999,22.0,31.0,-999,-99.99,,,-99.99,,2013-10-22 13:53:00,
2013-10-22 09:12:00,39.0,-99.9,29.88,North,-999,20.0,25.0,-999,-99.99,,,-99.99,,2013-10-22 14:12:00,
2013-10-22 09:22:00,39.0,-99.9,29.88,North,-999,20.0,25.0,-999,-99.99,,,-99.99,,2013-10-22 14:22:00,
2013-10-22 09:42:00,40.0,-99.9,29.88,North,-999,20.0,25.0,-999,-99.99,,,-99.99,,2013-10-22 14:42:00,
2013-10-22 09:52:00,40.0,-99.9,29.88,North,-999,20.0,25.0,-999,-99.99,,,-99.99,,2013-10-22 14:52:00,
2013-10-22 10:22:00,40.0,-99.9,29.88,North,-999,18.0,22.0,-999,-99.99,,,-99.99,,2013-10-22 15:22:00,
2013-10-22 10:43:00,41.0,-99.9,29.89,North,-999,16.0,20.0,-999,-99.99,,,-99.99,,2013-10-22 15:43:00,
2013-10-22 10:54:00,41.0,-99.9,29.89,North,-999,16.0,20.0,-999,-99.99,,,-99.99,,2013-10-22 15:54:00,
2013-10-22 11:00:00,42.0,-99.9,29.89,North,-999,16.0,20.0,-999,-99.99,,,-99.99,,2013-10-22 16:00:00,
2013-10-22 11:23:00,42.0,-99.9,29.89,North,-999,16.0,22.0,-999,-99.99,,,-99.99,,2013-10-22 16:23:00,
2013-10-22 11:53:00,42.0,-99.9,29.89,North,-999,16.0,20.0,-999,-99.99,,,-99.99,,2013-10-22 16:53:00,
2013-10-22 12:22:00,43.0,-99.9,29.89,North,-999,16.0,20.0,-999,-99.99,,,-99.99,,2013-10-22 17:22:00,
2013-10-22 12:53:00,44.0,-99.9,29.89,North,-999,13.0,16.0,-999,-99.99,,,-99.99,,2013-10-22 17:53:00,
2013-10-22 13:22:00,44.0,-99.9,29.89,North,-999,11.0,13.0,-999,-99.99,,,-99.99,,2013-10-22 18:22:00,
2013-10-22 13:42:00,44.0,-99.9,29.89,North,-999,11.0,13.0,-999,-99.99,,,-99.99,,2013-10-22 18:42:00,
2013-10-22 13:52:00,44.0,-99.9,29.89,North,-999,11.0,13.0,-999,-99.99,,,-99.99,,2013-10-22 18:52:00,
2013-10-22 14:22:00,44.0,-99.9,29.88,North,-999,9.0,11.0,-999,-99.99,,,-99.99,,2013-10-22 19:22:00,
2013-10-22 14:53:00,44.0,-99.9,29.88,North,-999,11.0,16.0,-999,-99.99,,,-99.99,,2013-10-22 19:53:00,
2013-10-22 15:11:00,45.0,-99.9,29.88,North,-999,13.0,16.0,-999,-99.99,,,-99.99,,2013-10-22 20:11:00,
2013-10-22 15:23:00,45.0,-99.9,29.88,North,-999,13.0,16.0,-999,-99.99,,,-99.99,,2013-10-22 20:23:00,
2013-10-22 15:43:00,45.0,-99.9,29.88,North,-999,11.0,16.0,-999,-99.99,,,-99.99,,2013-10-22 20:43:00,
2013-10-22 15:52:00,45.0,-99.9,29.88,North,-999,11.0,16.0,-999,-99.99,,,-99.99,,2013-10-22 20:52:00,
2013-10-22 16:23:00,45.0,-99.9,29.88,North,-999,11.0,16.0,-999,-99.99,,,-99.99,,2013-10-22 21:23:00,
2013-10-22 16:54:00,45.0,-99.9,29.89,North,-999,11.0,16.0,-999,-99.99,,,-99.99,,2013-10-22 21:54:00,
2013-10-22 17:14:00,45.0,-99.9,29.90,North,-999,13.0,18.0,-999,-99.99,,,-99.99,,2013-10-22 22:14:00,
2013-10-22 17:24:00,45.0,-99.9,29.90,North,-999,13.0,18.0,-999,-99.99,,,-99.99,,2013-10-22 22:24:00,
2013-10-22 17:44:00,45.0,-99.9,29.90,North,-999,13.0,16.0,-999,-99.99,,,-99.99,,2013-10-22 22:44:00,
2013-10-22 17:54:00,45.0,-99.9,29.90,North,-999,13.0,16.0,-999,-99.99,,,-99.99,,2013-10-22 22:54:00,
2013-10-22 18:23:00,45.0,-99.9,29.90,North,-999,13.0,16.0,-999,-99.99,,,-99.99,,2013-10-22 23:23:00,
2013-10-22 18:30:00,45.0,-99.9,29.91,North,-999,16.0,18.0,-999,-99.99,,,-99.99,,2013-10-22 23:30:00,
2013-10-22 18:53:00,45.0,-99.9,29.91,North,-999,13.0,16.0,-999,-99.99,,,-99.99,,2013-10-22 23:53:00,
2013-10-22 19:11:00,45.0,-99.9,29.91,North,-999,16.0,18.0,-999,-99.99,,,-99.99,,2013-10-23 00:11:00,
2013-10-22 19:22:00,45.0,-99.9,29.91,North,-999,16.0,18.0,-999,-99.99,,,-99.99,,2013-10-23 00:22:00,
2013-10-22 19:52:00,44.0,-99.9,29.92,North,-999,20.0,27.0,-999,-99.99,,,-99.99,,2013-10-23 00:52:00,
2013-10-22 20:23:00,43.0,-99.9,29.92,North,-999,18.0,25.0,-999,-99.99,,,-99.99,,2013-10-23 01:23:00,
2013-10-22 20:53:00,43.0,-99.9,29.93,North,-999,20.0,25.0,-999,-99.99,,,-99.99,,2013-10-23 01:53:00,
2013-10-22 21:12:00,41.0,-99.9,29.93,North,-999,20.0,22.0,-999,-99.99,,,-99.99,,2013-10-23 02:12:00,
2013-10-22 21:22:00,41.0,-99.9,29.93,North,-999,20.0,22.0,-999,-99.99,,,-99.99,,2013-10-23 02:22:00,
2013-10-22 21:42:00,41.0,-99.9,29.93,North,-999,18.0,22.0,-999,-99.99,,,-99.99,,2013-10-23 02:42:00,
2013-10-22 21:54:00,41.0,-99.9,29.93,North,-999,18.0,22.0,-999,-99.99,,,-99.99,,2013-10-23 02:54:00,
2013-10-22 22:22:00,40.0,-99.9,29.94,North,-999,20.0,25.0,-999,-99.99,,,-99.99,,2013-10-23 03:22:00,
2013-10-22 22:55:00,41.0,-99.9,29.94,North,-999,18.0,22.0,-999,-99.99,,,-99.99,,2013-10-23 03:55:00,
2013-10-22 23:00:00,40.0,-99.9,29.94,North,-999,16.0,20.0,-999,-99.99,,,-99.99,,2013-10-23 04:00:00,
2013-10-22 23:24:00,40.0,-99.9,29.94,North,-999,18.0,25.0,-999,-99.99,,,-99.99,,2013-10-23 04:24:00,
2013-10-22 23:45:00,40.0,-99.9,29.94,North,-999,16.0,20.0,-999,-99.99,,,-99.99,,2013-10-23 04:45:00,
2013-10-22 23:55:00,40.0,-99.9,29.94,North,-999,16.0,20.0,-999,-99.99,,,-99.99,,2013-10-23 04:55:00,